User: anonymous   Login
Location: Unspecified
(0.0000°N, 0.0000°E)
Time: 01:51:44
(UTC+00:00)
Language:

STARLINK-11438 [DTC] - Orbit

View from above orbital plane
View from above orbital plane
View from above satellite
View from above satellite

Ground track
Ground track

The orbit is defined by the following mean orbital elements,

1 62888U          26145.52230146 +.00000000 +00000-0 +13552-2 0 00004
2 62888  42.9998  78.0393 0002292  62.5890 297.5211 15.70877123    08
Epoch (UTC): 25 May 2026 12:32:06
Eccentricity: 0.0002292
inclination: 42.9998°
perigee height: 355 km
apogee height: 358 km
right ascension of ascending node: 78.0393°
argument of perigee: 62.5890°
revolutions per day: 15.70877123
mean anomaly at epoch: 297.5211°

The dashed part of the orbit path shows where the satellite is in the earth's shadow,  

DLR